Date,TemperatureHighF,TemperatureAvgF,TemperatureLowF,DewpointHighF,DewpointAvgF,DewpointLowF,HumidityHigh,HumidityAvg,HumidityLow,PressureMaxIn,PressureMinIn,WindSpeedMaxMPH,WindSpeedAvgMPH,GustSpeedMaxMPH,PrecipitationSumIn
2013-1-2,23.6,17.6,9.9,13.5,6.5,-2.4,66,61,57,29.61,29.50,0,0,0,0.00
2013-1-3,18.2,13.7,7.2,6.6,2.3,-3.9,70,60,51,29.62,29.50,0,0,0,0.00
2013-1-4,36.2,26.1,13.3,24.7,17.4,5.9,75,70,62,29.48,29.31,0,0,0,0.00
2013-1-5,42.5,34.0,23.0,26.5,22.3,16.0,74,63,46,29.76,29.33,0,0,0,0.00
2013-1-6,32.6,30.9,30.1,25.1,24.8,24.2,81,78,71,29.46,29.45,0,0,0,0.00
2013-1-7,30.1,25.4,22.3,25.2,20.4,16.2,84,81,75,29.90,29.45,0,0,0,0.00
2013-1-8,48.2,33.1,22.5,30.7,25.3,18.6,89,74,50,29.87,29.75,0,0,0,0.00
2013-1-9,42.1,34.1,27.4,33.9,28.6,23.4,86,80,68,29.88,29.49,0,0,0,0.00
2013-1-10,42.8,36.8,30.6,30.2,25.4,22.0,71,63,59,30.05,29.50,0,0,0,0.00
2013-1-11,41.6,33.6,25.0,34.8,27.5,20.0,89,78,70,30.02,29.75,0,0,0,0.00
2013-1-12,45.2,40.6,37.6,42.5,38.2,34.9,93,91,88,29.74,29.64,0,0,0,0.00
2013-1-13,49.9,46.0,39.8,48.2,44.3,37.9,95,94,93,29.65,29.50,0,0,0,0.00
2013-1-14,63.0,52.6,46.4,46.0,36.1,32.4,58,54,46,29.63,29.54,0,0,0,0.00
2013-1-15,36.9,32.7,31.0,26.6,25.1,24.1,77,73,66,29.79,29.76,0,0,0,0.00
2013-1-16,32.6,32.4,32.2,30.5,30.4,30.3,93,92,92,29.35,29.32,0,0,0,0.00
2013-1-17,38.7,32.0,29.2,29.8,20.8,15.8,73,63,57,29.60,29.52,0,0,0,0.00
2013-1-18,28.8,20.2,14.6,16.3,8.3,3.0,68,60,50,29.96,29.57,0,0,0,0.00
2013-1-19,42.1,29.5,18.5,27.0,17.9,9.0,66,62,55,29.89,29.58,0,0,0,0.00
2013-1-20,40.9,31.8,29.0,18.4,14.3,12.9,51,48,40,29.41,29.22,0,0,0,0.00
2013-1-21,30.6,25.7,22.9,16.9,13.9,8.5,77,62,40,29.51,29.32,0,0,0,0.00
2013-1-22,29.7,21.1,13.0,17.5,10.0,2.0,84,64,44,29.58,29.26,0,0,0,0.00
2013-1-23,25.6,11.7,5.9,1.4,-6.2,-11.6,61,45,27,29.63,29.56,0,0,0,0.00
2013-1-24,27.4,10.9,1.8,-2.6,-9.3,-12.6,50,40,27,29.70,29.55,0,0,0,0.00
2013-1-25,27.4,16.4,7.7,3.4,-4.4,-9.2,50,40,27,29.78,29.58,0,0,0,0.00
2013-1-26,35.8,18.4,11.2,8.0,2.5,-5.3,74,52,30,29.72,29.51,0,0,0,0.00
2013-1-27,29.7,23.0,17.6,0.9,-0.6,-1.9,43,35,27,29.97,29.87,0,0,0,0.00
2013-1-28,31.3,23.5,15.8,21.8,9.6,-0.2,83,56,37,29.96,29.54,0,0,0,0.00
2013-1-29,36.4,30.2,25.0,30.2,25.7,21.4,88,83,76,29.71,29.54,0,0,0,0.00
2013-1-30,60.1,47.0,32.8,56.5,44.6,29.6,96,91,87,29.66,28.97,0,0,0,0.00
2013-1-31,60.7,44.9,30.4,57.4,34.9,17.5,93,69,47,29.06,28.65,0,0,0,0.00
2013-2-1,39.6,29.1,22.7,18.6,11.8,6.4,65,49,32,29.56,29.08,0,0,0,0.00
2013-2-2,38.7,25.2,16.0,11.9,8.0,5.0,62,48,31,29.75,29.56,0,0,0,0.00
2013-2-3,27.9,25.8,22.0,20.2,17.6,11.9,78,71,53,29.56,29.29,0,0,0,0.00
2013-2-4,33.5,24.4,20.5,17.8,10.7,5.6,80,57,38,29.42,29.21,0,0,0,0.00
2013-2-5,33.5,24.9,18.7,17.2,11.2,5.4,72,56,44,29.54,29.43,0,0,0,0.00
2013-2-6,40.5,29.9,24.1,28.2,20.1,12.5,85,68,48,29.81,29.43,0,0,0,0.00
2013-2-7,24.8,21.2,15.5,12.5,6.4,3.5,61,53,46,30.03,29.81,0,0,0,0.00
2013-2-8,33.7,28.1,17.8,29.3,22.8,10.2,94,81,54,30.01,29.16,0,0,0,0.00
2013-2-9,21.4,17.7,13.1,19.5,15.3,10.5,92,90,89,29.68,29.09,0,0,0,0.00
2013-2-10,49.9,21.4,6.3,34.3,15.7,3.0,91,80,50,29.90,29.68,0,0,0,0.00
2013-2-11,39.1,27.5,12.6,37.2,24.0,7.5,93,87,79,29.87,29.13,0,0,0,0.00
2013-2-13,30.6,30.1,29.5,24.2,24.0,23.8,79,78,77,29.26,29.25,0,0,0,0.00
2013-2-14,33.7,30.2,27.9,24.2,22.9,21.8,79,74,66,29.49,29.48,0,0,0,0.00
2013-2-15,62.5,38.0,24.3,36.5,28.6,19.9,88,71,37,29.50,29.40,0,0,0,0.00
2013-2-16,40.7,34.5,28.4,33.1,27.7,21.3,89,77,61,29.45,29.22,0,0,0,0.00
2013-2-17,32.0,23.1,18.2,21.6,12.4,3.4,88,65,47,29.22,28.85,0,0,0,0.00
2013-2-18,42.8,24.1,14.9,8.1,3.4,-0.4,58,42,22,29.64,29.14,0,0,0,0.00
2013-2-19,47.9,34.4,19.8,39.0,21.6,4.2,91,61,44,29.66,29.08,0,0,0,0.00
2013-2-20,38.0,33.0,26.3,35.3,23.1,14.7,92,68,49,29.26,29.03,0,0,0,0.00
2013-2-21,29.5,27.5,25.7,15.3,14.6,14.0,63,58,52,29.42,29.26,0,0,0,0.00
2013-2-22,31.1,31.1,31.1,22.9,22.9,22.9,71,71,71,29.87,29.87,0,0,0,0.00
2013-2-23,38.7,37.0,35.5,31.2,30.6,29.9,80,77,74,29.65,29.55,0,0,0,0.00
2013-2-24,37.1,33.7,30.6,35.2,31.9,29.1,94,93,89,29.42,29.21,0,0,0,0.00
2013-2-25,47.3,34.1,29.3,36.6,30.2,26.8,94,86,66,29.74,29.40,0,0,0,0.00
2013-2-26,46.4,34.5,27.7,36.6,29.6,25.2,93,83,62,29.86,29.70,0,0,0,0.00
2013-2-27,40.7,38.3,33.3,39.1,36.1,29.5,95,92,84,29.70,29.06,0,0,0,0.00
2013-2-28,54.9,39.5,33.7,44.9,35.7,32.3,95,88,53,29.15,29.04,0,0,0,0.00
2013-3-1,35.6,35.5,35.3,29.5,29.4,29.3,79,79,78,29.19,29.18,0,0,0,0.00
2013-3-2,39.8,38.9,38.0,31.8,31.0,30.1,73,73,73,29.18,29.18,0,0,0,0.00
2013-3-3,35.3,35.1,34.7,28.1,27.6,26.9,75,74,73,29.09,29.09,0,0,0,0.00
2013-3-4,39.6,39.6,39.6,25.1,25.1,25.1,56,56,56,29.07,29.07,0,0,0,0.00
2013-3-5,43.4,42.5,41.6,34.3,33.7,33.0,71,70,70,29.54,29.53,0,0,0,0.00
2013-3-6,35.6,35.2,34.7,32.3,31.4,30.6,89,86,82,29.63,29.59,0,0,0,0.00
2013-3-7,36.0,33.6,31.1,30.8,29.9,29.3,93,86,77,29.61,29.55,0,0,0,0.00
2013-3-8,39.4,36.9,29.9,30.7,28.8,25.5,94,73,60,29.66,29.51,0,0,0,0.00
2013-3-9,61.9,38.2,26.3,37.6,26.8,22.1,84,65,38,29.87,29.66,0,0,0,0.00
2013-3-10,60.3,35.1,22.7,39.3,27.8,19.4,89,76,44,29.93,29.85,0,0,0,0.00
2013-3-11,50.0,48.8,46.8,39.2,39.0,38.3,72,69,66,29.68,29.67,0,0,0,0.00
2013-3-12,50.6,49.8,48.4,48.9,47.2,46.0,94,91,86,29.42,29.24,0,0,0,0.00
2013-3-13,33.3,33.3,33.3,23.5,23.5,23.5,67,67,67,29.28,29.28,0,0,0,0.00
2013-3-16,31.7,31.0,30.2,16.8,16.8,16.7,57,56,54,29.39,29.39,0,0,0,0.00
2013-3-17,44.6,31.0,21.2,16.6,10.9,4.1,73,46,23,29.83,29.40,0,0,0,0.00
2013-3-18,48.2,29.3,15.8,22.3,11.5,1.3,71,48,32,29.97,29.78,0,0,0,0.00
2013-3-19,33.5,31.0,27.7,31.6,27.4,22.3,93,87,71,29.78,29.12,0,0,0,0.00
2013-3-20,41.8,31.2,24.8,28.7,24.2,20.0,92,77,51,29.32,29.19,0,0,0,0.00
2013-3-21,42.3,30.6,21.1,26.1,22.1,17.4,86,72,43,29.32,29.13,0,0,0,0.00
2013-3-22,33.1,30.5,27.7,25.1,23.3,21.5,86,75,62,29.23,29.11,0,0,0,0.00
2013-3-23,38.5,37.0,34.2,21.3,20.4,19.5,57,51,46,29.27,29.22,0,0,0,0.00
2013-3-24,56.2,43.6,33.7,28.9,25.8,20.8,70,51,34,29.31,29.24,0,0,0,0.00
2013-3-25,46.1,38.1,28.8,36.9,31.6,24.3,83,77,70,29.23,29.06,0,0,0,0.00
2013-3-26,57.8,41.4,32.0,30.9,25.8,21.5,84,57,29,29.28,29.05,0,0,0,0.00
2013-3-27,51.8,37.0,27.9,32.7,25.4,21.2,78,64,40,29.38,29.27,0,0,0,0.00
2013-3-28,47.9,44.9,40.0,34.3,33.3,32.0,73,64,59,29.47,29.37,0,0,0,0.00
2013-3-29,58.1,54.1,48.2,36.3,35.0,33.2,56,49,44,29.52,29.50,0,0,0,0.00
2013-3-30,43.4,39.0,36.4,29.5,26.8,25.4,76,62,52,29.61,29.57,0,0,0,0.00
2013-3-31,53.1,42.8,29.0,35.3,30.7,23.9,81,64,46,29.63,29.34,0,0,0,0.00
2013-4-1,61.0,55.8,43.0,42.6,39.8,26.2,90,56,50,29.18,29.01,0,0,0,0.00
2013-4-2,34.4,32.4,29.3,15.1,12.8,11.3,55,45,38,29.39,29.37,0,0,0,0.00
2013-4-3,54.0,44.0,30.1,15.1,9.1,5.1,52,26,16,29.53,29.42,0,0,0,0.00
2013-4-4,66.4,52.0,30.1,18.6,17.7,15.8,55,29,16,29.78,29.56,0,0,0,0.00
2013-4-5,68.8,51.1,38.9,28.2,25.5,23.0,63,40,22,29.43,29.17,0,0,0,0.00
2013-4-6,40.7,34.2,31.0,8.8,8.6,8.1,39,35,26,29.79,29.63,0,0,0,0.00
2013-4-11,52.4,46.3,42.1,41.3,36.0,32.6,73,67,64,29.66,29.53,0,0,0,0.00
2013-4-12,42.1,38.5,36.4,36.5,33.9,31.4,93,84,71,29.71,29.31,0,0,0,0.00
2013-4-13,53.6,41.3,34.9,41.8,36.6,33.2,94,84,62,29.44,29.28,0,0,0,0.00
2013-4-14,61.9,46.1,38.5,39.7,34.0,28.4,93,66,33,29.73,29.43,0,0,0,0.00
2013-4-15,62.1,44.3,30.6,38.5,33.2,26.1,87,67,39,29.90,29.73,0,0,0,0.00
2013-4-16,72.0,52.1,34.9,50.2,40.7,30.8,89,68,39,29.92,29.56,0,0,0,0.00
2013-4-17,65.2,56.8,52.7,52.3,42.5,33.0,83,61,30,29.70,29.56,0,0,0,0.00
2013-4-18,68.0,57.3,51.7,40.0,35.1,27.2,64,44,30,29.85,29.67,0,0,0,0.00
2013-4-19,78.8,63.8,52.2,62.1,55.3,41.1,90,75,52,29.67,29.18,0,0,0,0.00
2013-4-20,67.1,54.9,44.6,62.5,43.0,24.9,93,67,43,29.71,29.11,0,0,0,0.00
2013-4-21,63.2,44.1,32.9,30.3,24.0,20.1,72,47,23,30.20,29.71,0,0,0,0.00
2013-4-22,62.8,42.7,29.3,36.0,29.7,24.7,86,63,32,30.30,30.13,0,0,0,0.00
2013-4-23,42.1,40.7,37.1,40.6,36.6,28.7,95,86,69,30.13,29.65,0,0,0,0.00
2013-4-24,81.4,54.1,41.8,57.2,46.5,40.4,95,78,42,29.65,29.30,0,0,0,0.00
2013-4-25,60.8,51.4,42.8,49.8,39.1,31.3,85,65,33,29.78,29.33,0,0,0,0.00
2013-4-26,72.7,49.7,36.7,45.0,36.6,30.5,81,63,35,29.95,29.79,0,0,0,0.00
2013-4-27,72.0,52.1,37.6,41.9,36.5,30.9,88,59,29,29.94,29.82,0,0,0,0.00
2013-4-28,76.3,54.5,37.8,43.0,37.1,32.5,84,56,23,29.86,29.75,0,0,0,0.00
2013-4-29,78.5,57.5,43.2,49.4,38.5,27.6,82,53,30,29.79,29.72,0,0,0,0.00
2013-4-30,81.0,56.2,39.8,38.1,28.7,20.8,75,41,15,29.89,29.77,0,0,0,0.00
2013-5-1,81.5,54.5,36.2,41.2,35.0,29.0,81,52,22,29.99,29.90,0,0,0,0.00
2013-5-2,88.9,54.5,39.6,48.2,40.2,34.3,86,63,25,30.02,29.88,0,0,0,0.00
2013-5-3,71.6,50.2,38.5,47.2,39.2,34.2,87,68,41,30.05,29.89,0,0,0,0.00
2013-5-4,46.8,42.2,38.7,35.8,33.8,31.4,81,72,63,29.89,29.85,0,0,0,0.00
2013-5-5,69.8,48.5,33.8,45.2,36.2,29.2,87,65,37,29.85,29.78,0,0,0,0.00
2013-5-6,76.3,51.5,34.4,51.8,41.4,30.4,89,71,39,29.81,29.68,0,0,0,0.00
2013-5-7,82.3,60.5,41.2,59.3,49.6,37.9,91,70,40,29.69,29.62,0,0,0,0.00
2013-5-8,76.3,61.5,50.6,62.6,55.5,46.8,90,81,60,29.73,29.58,0,0,0,0.00
2013-5-9,64.1,58.4,55.4,60.6,56.0,53.6,94,92,86,29.58,29.42,0,0,0,0.00
2013-5-10,56.2,55.4,55.1,54.7,53.9,53.4,95,95,94,29.45,29.41,0,0,0,0.00
2013-5-11,71.6,62.6,57.6,61.7,57.6,53.7,91,84,71,29.42,29.21,0,0,0,0.00
2013-5-12,75.1,62.1,50.2,60.8,52.9,33.8,92,74,47,29.29,29.07,0,0,0,0.00
2013-5-13,65.0,51.2,41.0,35.6,32.6,28.5,74,51,31,29.54,29.31,0,0,0,0.00
2013-5-14,62.5,50.6,40.9,35.3,32.0,28.4,70,51,30,29.56,29.47,0,0,0,0.00
2013-5-15,67.3,49.5,35.6,43.0,35.3,31.0,84,62,34,29.56,29.36,0,0,0,0.00
2013-5-16,84.8,75.5,65.5,41.5,37.4,34.1,38,26,19,29.30,29.13,0,0,0,0.00
2013-5-17,63.5,63.5,63.5,39.3,39.3,39.3,41,41,41,29.32,29.32,0,0,0,0.00
2013-5-25,51.3,45.1,41.2,49.6,43.5,39.3,95,94,93,29.22,29.18,0,0,0,0.00
2013-5-26,57.1,43.1,39.8,46.6,40.7,38.1,96,92,65,29.32,29.19,0,0,0,0.00
2013-7-22,85.0,82.8,81.7,72.4,71.3,69.2,72,68,65,29.49,29.47,0,0,0,0.00
2013-7-25,60.5,60.2,60.1,55.0,54.8,54.6,83,82,81,29.61,29.61,0,0,0,0.00
2013-8-23,61.7,61.4,60.8,54.1,53.8,53.3,76,76,76,29.63,29.62,0,0,0,0.00
2013-8-24,90.2,69.2,54.7,53.3,48.5,45.8,79,51,27,29.82,29.63,0,0,0,0.00
2013-8-25,86.9,67.5,53.6,56.0,52.2,46.5,78,61,33,29.83,29.68,0,0,0,0.00
2013-8-26,90.7,71.9,63.0,69.0,62.2,54.5,80,72,49,29.68,29.36,0,0,0,0.00
2013-8-27,93.4,75.0,66.2,71.6,65.7,61.2,86,74,46,29.40,29.33,0,0,0,0.00
2013-8-28,93.8,71.9,61.2,70.4,63.2,57.3,88,76,43,29.49,29.36,0,0,0,0.00
2013-8-29,65.9,64.3,62.1,61.8,59.9,57.5,88,86,82,29.58,29.47,0,0,0,0.00
2013-9-1,73.8,72.0,71.1,69.0,68.0,67.3,88,87,85,29.36,29.28,0,0,0,0.00
2013-10-17,66.8,60.5,57.2,55.3,53.4,52.2,85,78,66,29.27,29.11,0,0,0,0.00
2013-10-18,79.7,61.8,47.3,58.1,51.2,40.8,87,70,33,29.40,29.10,0,0,0,0.00
2013-10-19,77.0,55.7,41.0,47.4,43.0,36.2,85,65,33,29.47,29.25,0,0,0,0.00
2013-10-20,78.5,55.9,42.1,48.3,40.7,33.5,84,60,26,29.51,29.18,0,0,0,0.00
2013-10-21,83.2,52.7,37.1,47.4,39.5,32.0,84,64,27,29.61,29.50,0,0,0,0.00
2013-10-22,70.6,54.5,43.9,53.1,45.3,38.9,86,72,53,29.50,29.20,0,0,0,0.00
2013-10-23,53.8,46.2,36.5,39.5,35.7,31.9,84,68,49,29.29,29.09,0,0,0,0.00
2013-10-24,65.9,46.8,37.1,36.1,31.6,27.1,80,58,28,29.37,29.12,0,0,0,0.00
2013-10-25,57.2,40.4,32.9,34.8,28.3,24.2,82,63,38,29.64,29.37,0,0,0,0.00
2013-10-26,32.9,30.9,29.3,25.0,24.4,23.9,82,77,70,29.64,29.63,0,0,0,0.00
2013-10-30,54.4,42.0,32.9,42.4,35.8,28.9,85,79,64,29.79,29.63,0,0,0,0.00
2013-10-31,32.9,32.0,31.3,28.9,28.4,27.9,87,86,85,29.74,29.72,0,0,0,0.00
2013-11-1,67.5,63.5,58.5,57.1,54.4,52.0,79,72,66,29.13,28.95,0,0,0,0.00
2013-11-2,82.1,56.9,46.1,50.6,45.5,42.1,86,68,29,29.22,29.09,0,0,0,0.00
2013-11-3,51.5,42.5,31.5,45.0,33.9,20.4,86,72,51,29.91,29.22,0,0,0,0.00
2013-11-4,59.9,34.5,25.6,28.7,20.5,17.9,74,58,28,30.20,29.92,0,0,0,0.00
2013-11-5,67.9,37.3,24.8,36.8,27.0,18.4,81,68,32,30.21,30.01,0,0,0,0.00
2013-11-6,72.0,50.4,36.5,48.5,40.2,30.8,83,70,36,30.01,29.53,0,0,0,0.00
2013-11-7,65.9,54.4,41.4,57.4,49.2,35.6,87,83,70,29.53,29.17,0,0,0,0.00
2013-11-8,52.0,39.5,31.1,35.6,30.6,25.5,84,71,49,29.57,29.30,0,0,0,0.00
2013-11-9,47.0,38.6,28.6,29.9,26.1,22.7,80,62,42,29.68,29.53,0,0,0,0.00
2013-11-10,54.9,45.0,39.6,46.1,37.1,29.9,87,74,64,29.53,29.22,0,0,0,0.00
2013-11-11,65.9,46.1,38.7,33.4,30.1,27.2,77,55,26,29.58,29.32,0,0,0,0.00
2013-11-12,47.7,46.5,44.1,37.7,34.2,32.2,78,63,55,29.39,29.37,0,0,0,0.00
2013-11-13,35.8,29.0,24.5,15.4,13.4,12.3,63,53,43,29.73,29.66,0,0,0,0.00
2013-11-14,62.3,38.0,25.4,27.5,22.1,14.9,67,54,27,29.64,29.52,0,0,0,0.00
2013-11-15,69.7,42.9,28.4,30.9,24.3,21.0,74,52,22,29.69,29.59,0,0,0,0.00
2013-11-16,73.8,44.7,31.7,36.1,30.2,25.7,78,60,23,29.82,29.67,0,0,0,0.00
2013-11-17,55.3,43.6,29.9,49.7,38.4,24.5,87,82,71,29.82,29.39,0,0,0,0.00
2013-11-18,79.6,60.4,48.6,57.5,50.5,40.5,87,72,33,29.35,29.02,0,0,0,0.00
2013-12-5,47.3,46.5,44.8,43.7,43.0,41.5,88,87,87,29.53,29.44,0,0,0,0.00
2013-12-11,26.1,24.0,21.1,19.2,18.2,16.4,82,78,75,29.63,29.61,0,0,0,0.00
2013-12-12,23.8,17.7,11.0,18.5,10.0,3.8,83,72,44,29.69,29.56,0,0,0,0.00
2013-12-13,31.1,20.9,11.0,19.1,11.6,4.8,76,67,52,29.88,29.47,0,0,0,0.00
2013-12-14,26.6,15.5,9.0,23.2,7.3,-2.5,87,70,58,30.11,29.71,0,0,0,0.00
2013-12-15,34.2,27.1,21.4,30.6,24.0,18.4,89,88,87,29.68,28.91,0,0,0,0.00
2013-12-16,33.8,21.3,11.9,21.3,15.6,7.1,89,79,55,29.70,29.23,0,0,0,0.00
2013-12-17,20.2,12.8,1.1,17.4,8.3,-3.2,89,82,71,29.79,29.43,0,0,0,0.00
2013-12-18,40.5,24.3,15.5,27.7,19.3,12.0,88,82,60,29.56,29.36,0,0,0,0.00
2013-12-19,50.9,31.0,20.7,33.5,24.5,17.1,88,78,51,29.61,29.45,0,0,0,0.00
2013-12-20,57.2,36.7,28.4,41.7,31.7,25.4,89,82,56,29.61,29.40,0,0,0,0.00
2013-12-21,56.2,43.7,36.0,46.7,38.5,32.3,87,82,70,29.45,29.35,0,0,0,0.00
2013-12-22,43.2,36.8,32.2,39.6,33.4,29.1,88,88,87,29.53,29.31,0,0,0,0.00
2013-12-23,36.0,32.6,31.3,32.4,29.5,28.3,88,88,87,29.59,29.46,0,0,0,0.00
2013-12-24,43.2,32.1,25.9,32.4,25.0,15.7,89,75,57,29.69,29.55,0,0,0,0.00
2013-12-25,32.2,19.4,13.0,16.4,7.9,1.8,76,61,45,30.05,29.69,0,0,0,0.00
2013-12-26,32.6,23.9,15.3,28.5,19.2,9.1,88,82,76,30.01,29.58,0,0,0,0.00
2013-12-27,34.9,25.4,16.6,25.7,19.7,13.2,88,79,64,29.77,29.68,0,0,0,0.00
2013-12-28,52.6,31.2,20.9,33.4,24.4,17.3,87,77,48,29.71,29.48,0,0,0,0.00
2013-12-29,40.7,33.6,28.4,35.3,29.3,24.5,88,84,76,29.52,28.99,0,0,0,0.00
2013-12-30,35.3,25.6,18.5,32.1,18.1,9.0,88,73,65,29.67,29.01,0,0,0,0.00
2013-12-31,17.8,17.4,16.9,8.4,7.1,5.1,66,63,59,29.68,29.66,0,0,0,0.00
2014-1-2,5.2,2.5,0.4,1.6,-1.3,-3.7,85,84,83,29.55,29.38,0,0,0,0.00